Regional Weather Roundup
Issued by NWS

Home | Current Version | Previous Version | Graphics & Text | Print | Product List | Glossary On
Versions: 1 2 3 4 5 6 7 8 9 10 11 12 13 14 15 16 17 18 19 20 21 22 23 24 25 26 27 28 29 30 31 32 33 34 35 36 37 38 39 40 41 42 43 44 45 46 47 48 49 50
358
ASUS43 KTOP 222008
RWRKS

WEATHER ROUNDUP FOR KANSAS
NATIONAL WEATHER SERVICE GOODLAND KS
300 PM CDT THU JUN 22 2017

NOTE:  "FAIR" INDICATES FEW OR NO CLOUDS BELOW 12,000 FEET WITH NO
SIGNIFICANT WEATHER AND/OR OBSTRUCTIONS TO VISIBILITY.

KSZ001>006-013>018-027>032-041>047-222100-
NORTHWEST KANSAS

CITY           SKY/WX    TMP DP  RH WIND       PRES   REMARKS
GOODLAND       SUNNY     90  57  32 N21G29    29.78S
HAYS           SUNNY     99  63  30 S9        29.63F HX 101
HILL CITY      SUNNY    102  52  18 VRB7      29.64R HX  99
RUSSELL        SUNNY     99  60  27 S20G25    29.61F HX  99
$$

KSZ061>065-074>080-084>089-222100-
SOUTHWEST KANSAS

CITY           SKY/WX    TMP DP  RH WIND       PRES   REMARKS
DODGE CITY     SUNNY     92  64  39 S14       29.70F
ELKHART          N/A     95  58  29 SE10        N/A
GARDEN CITY    SUNNY     95  64  35 S15G23    29.69F HX  97
GREAT BEND     SUNNY     96  65  35 S16G23    29.64F HX  98
LIBERAL        SUNNY     93  65  39 S14       29.72F HX  95
PRATT          SUNNY     91  61  36 S16G23    29.67F
$$

KSZ066>073-081>083-090>101-222100-
SOUTHEAST KANSAS

CITY           SKY/WX    TMP DP  RH WIND       PRES   REMARKS
CHANUTE        PTSUNNY   85  70  60 S14G21    29.71F
COFFEYVILLE    CLOUDY    86  74  67 VRB5      29.70F
HUTCHINSON     SUNNY     95  62  33 S15G22    29.66F HX  96
MEDICINE LODGE   N/A     95  61  32 S14       29.65F HX  95
NEWTON         SUNNY     91  67  44 S12G23    29.69S
PARSONS        CLOUDY    85  72  65 S8        29.72F
WICHITA INTL   MOSUNNY   91  66  43 S18       29.66F
WICHITA JABRA  SUNNY     89  67  47 S16G25    29.67F
WICHITA MCCONL SUNNY     90  65  44 S16G22    29.67F
WINFIELD       SUNNY     87  66  49 SE12G21   29.70F
$$

KSZ007>012-019>026-033>040-048>060-102>105-222100-
NORTHEAST KANSAS

CITY           SKY/WX    TMP DP  RH WIND       PRES   REMARKS
CONCORDIA      SUNNY     95  61  32 SW17      29.62F HX  95
EMPORIA        SUNNY     86  70  58 S15G22    29.69F
LAWRENCE       MOSUNNY   88  71  57 SE14      29.68F
MANHATTAN      SUNNY     94  67  41 S15G23    29.64F HX  97
MARYSVILLE     PTSUNNY   88  70  55 S10       29.64S
OLATHE IND     PTSUNNY   84  71  65 S15       29.72S
OLATHE EXE     PTSUNNY   81  71  71 S14       29.71F
SALINA         SUNNY     98  61  29 S15G26    29.63F HX  98
TOPEKA BILLARD SUNNY     88  71  57 S15       29.67F
TOPEKA FORBES  SUNNY     90  70  51 S15       29.68F HX  95
$$




USA.gov is the U.S. government's official web portal to all federal, state and local government web resources and services.